Tracking 27401 objects as of 3-Jun-2023
HD Live streaming from Space Station
objects crossing your sky now

SL-12 R/B(AUX MOTOR)

Track SL-12 R/B(AUX MOTOR) now!
10-day predictions


NORAD ID: 4790
Int'l Code: 1970-103C
Perigee: 1,614.7 km
Apogee: 5,096.0 km
Inclination: 51.6 °
Period: 159.1 minutes
Semi major axis: 9726 km
RCS: 0.7107 m2 (medium)
Launch date: December 2, 1970
Source: Commonwealth of Independent States (former USSR) (CIS)
Launch site: TYURATAM MISSILE AND SPACE COMPLEX (TTMTR)

Note: This is a ROCKET BODY
Your satellite tracking list
Your tracking list is empty




NASA's NSSDC Master Catalog

Two Line Element Set (TLE):
1 04790U 70103C   23154.12347222 -.00000007  00000-0  11567-2 0  9999
2 04790  51.5927 205.9377 1789613 280.7287  59.7817  9.05055704735594
Source of the keplerian elements: AFSPC